Location: Peterborough
(44.3091°N, 78.3197°W)
Time: 23:55:47
(UTC-04:00)

SR - Pass Details

Date: 29 March 2023
Orbit: 581 x 867 km, 66.7° (Epoch: 02 June)

Event Time Altitude Azimuth Distance (km) Brightness Sun altitude
Rises 12:40:33 0° 308° (NW) 2,837 ? 48.3°
Reaches altitude 10° 12:43:54 10° 279° (W) 1,965 ? 48.5°
Maximum altitude 12:45:51 13° 253° (WSW) 1,807 ? 48.5°
Drops below altitude 10° 12:47:51 10° 226° (SW) 2,014 ? 48.6°
Sets 12:51:24 0° 199° (SSW) 2,981 ? 48.7°
